Terug naar catalogus

STARLINK-35551

ActiefCommunicatieVLEO
NORAD 66200·PAYLOAD·🇺🇸 United States

Gelanceerd Oct 26, 2025 vanaf Cape Canaveral Space Force Station

Loading…

Volgende Passages (komende 24 uur)

TLE

VersSource: CelesTrak SupGP

Epoch: Sep 15, 2026, 03:18 UTC

1 66200C 25243Z   26258.13798611 -.00027370  00000+0 -80871-3 0  2584
2 66200  53.1592  84.4756 0001162  91.4541 157.7959 15.34402430    19

Volg STARLINK-35551 in realtime met AllMySat

Download on the App Store